Location: Unspecified
(0.0000°N, 0.0000°E)
Time: 06:55:24
(UTC+00:00)

LAPAN A2 - Pass Details

Date: 09 June 2023
Orbit: 628 x 647 km, 6.0° (Epoch: 01 October)

Event Time Altitude Azimuth Distance (km) Brightness Sun altitude
Exits shadow 03:44:05 34° 89° (E) 1,034 ? -30.8°
Drops below altitude 10° 03:46:45 10° 93° (E) 1,987 ? -30.2°
Sets 03:49:07 0° 94° (E) 2,894 ? -29.7°
